K2EJ-13 Weather Reports


time (UTC)temp
F
wind
direction
speed
knots
gust
knots
rain 1hr
in
rain 24hr
in
rain mn
in
humidity
%
barometer
mb
20260505163536 77 191 2.6 8.7 0.00 0.00 0.00 49 1011.1
20260505162556 76 185 4.3 12.2 0.00 0.00 0.00 49 1011.2
20260505161515 77 184 3.5 8.7 0.00 0.00 0.00 48 1011.3
20260505160515 76 180 2.6 7.8 0.00 0.00 0.00 47 1011.3
20260505152535 76 198 2.6 7.8 0.00 0.00 0.00 48 1011.3
20260505151516 77 172 1.7 6.1 0.00 0.00 0.00 48 1011.3
20260505150535 78 206 0.9 7.0 0.00 0.00 0.00 47 1011.3
20260505140515 76 168 0.9 5.2 0.00 0.00 0.00 47 1011.2
20260505124515 70 167 0.0 5.2 0.00 0.00 0.00 57 1011.7
20260505123516 69 197 0.9 6.1 0.00 0.00 0.00 57 1011.7
20260505122515 69 179 0.9 5.2 0.00 0.00 0.00 58 1011.7
20260505121515 68 151 0.0 1.7 0.00 0.00 0.00 61 1011.7
20260505120516 66 173 0.0 0.9 0.00 0.00 0.00 65 1011.6
20260505115515 64 180 0.9 2.6 0.00 0.00 0.00 71 1011.5
20260505114515 61 0.0 0.0 0.00 0.00 0.00 80 1011.4
20260505113515 60 104 0.0 0.9 0.00 0.00 0.00 87 1011.3
20260505112515 58 0.0 0.0 0.00 0.00 0.00 91 1011.2
20260505111520 57 0.0 0.0 0.00 0.00 0.00 94 1011.1
20260505110515 56 0.0 0.0 0.00 0.00 0.00 95 1011.2
20260505101515 54 0.0 0.0 0.00 0.00 0.00 96 1010.5
20260505100535 54 0.0 0.0 0.00 0.00 0.00 96 1010.5
20260505095516 54 0.0 0.0 0.00 0.00 0.00 96 1010.4
20260505094515 55 0.0 0.0 0.00 0.00 0.00 95 1010.4
20260505093515 55 0.0 0.0 0.00 0.00 0.00 95 1010.3
20260505092535 55 0.0 0.0 0.00 0.00 0.00 94 1010.3
20260505091536 56 0.0 0.0 0.00 0.00 0.00 94 1010.3
20260505090535 56 0.0 0.0 0.00 0.00 0.00 92 1010.3
20260505085515 57 0.0 0.0 0.00 0.00 0.00 91 1010.2
20260505084515 57 0.0 0.0 0.00 0.00 0.00 89 1010.3
20260505083535 58 0.0 0.0 0.00 0.00 0.00 88 1010.3
20260505082515 59 0.0 0.0 0.00 0.00 0.00 87 1010.2
20260505081535 59 0.0 0.0 0.00 0.00 0.00 87 1010.3
20260505080515 59 299 0.0 0.9 0.00 0.00 0.00 86 1010.4
20260505075515 59 270 0.0 1.7 0.00 0.00 0.00 86 1010.4
20260505074515 60 215 0.9 6.1 0.00 0.00 0.00 86 1010.3
20260505073515 60 209 0.0 1.7 0.00 0.00 0.00 86 1010.2
20260505072515 60 134 0.9 2.6 0.00 0.00 0.00 87 1010.2
20260505071515 60 0.0 0.0 0.00 0.00 0.00 88 1010.1
20260505070515 60 171 0.9 6.1 0.00 0.00 0.00 90 1010.1
20260505065515 59 182 0.9 6.1 0.00 0.00 0.00 94 1010.1
20260505064515 59 0.0 0.0 0.00 0.00 0.00 92 1010.2
20260505063515 59 0.0 0.0 0.00 0.00 0.00 92 1010.1
20260505062515 59 0.0 0.0 0.00 0.00 0.00 92 1010.1
20260505061515 60 0.0 0.0 0.00 0.00 0.00 90 1010.2
20260505060535 60 0.0 0.0 0.00 0.00 0.00 88 1010.1
20260505055515 60 0.0 0.0 0.00 0.00 0.00 87 1010.1
20260505054536 61 0.0 0.0 0.00 0.00 0.00 86 1010.1
20260505053515 61 0.0 0.0 0.00 0.00 0.00 86 1010.3
20260505052516 61 0.0 0.0 0.00 0.00 0.00 85 1010.2
20260505051515 61 0.0 0.0 0.00 0.00 0.00 85 1010.2
20260505050515 61 0.0 0.0 0.00 0.00 0.00 84 1010.2
20260505041515 62 174 0.9 3.5 0.00 0.00 0.00 81 1010.0
20260505040515 62 153 0.9 2.6 0.00 0.00 0.00 81 1010.0
20260505035515 62 180 0.9 4.3 0.00 0.00 0.00 80 1009.9
20260505034515 62 126 0.9 2.6 0.00 0.00 0.00 77 1009.9
20260505033515 62 171 1.7 4.3 0.00 0.00 0.00 76 1009.9
20260505032515 63 168 0.9 2.6 0.00 0.00 0.00 73 1010.0
20260505031515 63 215 0.9 3.5 0.00 0.00 0.00 72 1009.9
20260505030515 63 189 0.9 4.3 0.00 0.00 0.00 71 1009.9
20260505025515 62 184 1.7 7.8 0.00 0.00 0.00 72 1009.9
20260505024535 62 187 0.0 4.3 0.00 0.00 0.00 72 1009.8
20260505023516 62 164 0.0 5.2 0.00 0.00 0.00 73 1009.9
20260505022515 63 0.0 0.0 0.00 0.00 0.00 70 1009.8
20260505021515 63 165 0.0 0.9 0.00 0.00 0.00 69 1009.9
20260505020515 64 175 0.0 1.7 0.00 0.00 0.00 68 1009.8
20260505015535 64 179 0.0 2.6 0.00 0.00 0.00 67 1009.8
20260505014535 64 188 0.9 4.3 0.00 0.00 0.00 67 1009.8
20260505013515 64 167 1.7 7.0 0.00 0.00 0.00 66 1009.6
20260505012515 65 210 0.9 5.2 0.00 0.00 0.00 65 1009.6
20260505011515 65 191 0.9 7.0 0.00 0.00 0.00 64 1009.4
20260505010515 65 217 1.7 7.0 0.00 0.00 0.00 62 1009.4
20260505005515 65 197 0.9 5.2 0.00 0.00 0.00 61 1009.4
20260505004515 66 187 0.9 5.2 0.00 0.00 0.00 60 1009.4
20260505003515 66 210 0.9 3.5 0.00 0.00 0.00 60 1009.4
20260505002515 66 190 1.7 7.0 0.00 0.00 0.00 59 1009.4
20260505001515 66 175 1.7 6.1 0.00 0.00 0.00 59 1009.2
20260505000515 66 170 1.7 6.1 0.00 0.00 0.00 59 1009.2
20260504235515 67 181 1.7 5.2 0.00 0.00 0.00 59 1009.3
20260504234515 67 172 0.9 4.3 0.00 0.00 0.00 57 1009.2
20260504233535 68 186 0.9 5.2 0.00 0.00 0.00 56 1009.2
20260504232515 68 183 1.7 4.3 0.00 0.00 0.00 53 1009.2
20260504231515 69 197 1.7 5.2 0.00 0.00 0.00 51 1009.2
20260504230515 69 192 2.6 7.8 0.00 0.00 0.00 50 1009.2
20260504225515 70 164 1.7 7.0 0.00 0.00 0.00 48 1009.2
20260504224515 70 183 2.6 7.8 0.00 0.00 0.00 45 1009.1
20260504223515 71 193 3.5 7.8 0.00 0.00 0.00 43 1009.1
20260504222515 71 183 2.6 8.7 0.00 0.00 0.00 42 1009.1
20260504221515 71 201 3.5 7.8 0.00 0.00 0.00 41 1009.1
20260504220515 72 189 4.3 13.9 0.00 0.00 0.00 40 1009.1
20260504215515 72 183 3.5 9.6 0.00 0.00 0.00 39 1009.1
20260504214515 72 183 4.3 9.6 0.00 0.00 0.00 38 1009.2
20260504213516 72 188 4.3 8.7 0.00 0.00 0.00 38 1009.2
20260504212515 73 198 2.6 8.7 0.00 0.00 0.00 38 1009.1
20260504211515 73 212 2.6 5.2 0.00 0.00 0.00 38 1009.2
20260504210515 73 201 2.6 7.8 0.00 0.00 0.00 37 1009.2
20260504205515 73 186 3.5 8.7 0.00 0.00 0.00 37 1009.3
20260504204515 74 167 1.7 4.3 0.00 0.00 0.00 38 1009.4
20260504203515 74 194 2.6 7.0 0.00 0.00 0.00 37 1009.4
20260504202515 74 174 2.6 13.0 0.00 0.00 0.00 36 1009.6
20260504201515 74 216 1.7 8.7 0.00 0.00 0.00 36 1009.8
20260504200516 74 200 3.5 9.6 0.00 0.00 0.00 36 1010.0
20260504195515 74 188 4.3 10.4 0.00 0.00 0.00 36 1010.1
20260504194515 74 174 3.5 8.7 0.00 0.00 0.00 36 1010.3
20260504193515 73 179 1.7 7.0 0.00 0.00 0.00 36 1010.5
20260504192516 74 178 3.5 9.6 0.00 0.00 0.00 36 1010.7
20260504191515 73 204 3.5 10.4 0.00 0.00 0.00 37 1010.8
20260504190556 73 201 4.3 8.7 0.00 0.00 0.00 37 1010.9
20260504185515 73 181 3.5 9.6 0.00 0.00 0.00 38 1011.1
20260504184515 73 197 4.3 11.3 0.00 0.00 0.00 37 1011.2
20260504183515 73 141 1.7 6.1 0.00 0.00 0.00 38 1011.2
20260504182515 72 194 4.3 12.2 0.00 0.00 0.00 36 1011.2
20260504181515 73 185 3.5 8.7 0.00 0.00 0.00 37 1011.3
20260504180515 73 199 2.6 7.8 0.00 0.00 0.00 37 1011.5
20260504175516 73 201 1.7 6.1 0.00 0.00 0.00 37 1011.6
20260504174515 73 184 2.6 7.8 0.00 0.00 0.00 40 1011.8
20260504173516 72 178 1.7 7.0 0.00 0.00 0.00 39 1011.9
20260504172515 72 161 0.9 6.1 0.00 0.00 0.00 42 1012.0
20260504171535 71 196 3.5 13.0 0.00 0.00 0.00 40 1012.0
20260504170555 71 195 2.6 7.8 0.00 0.00 0.00 40 1012.3